Overview Statistics Trail Chart Weather Telemetry Raw packets
 

This is the latest recevied weather packets stored in our database for station/object K1AWR. If no packets are shown the sender has not sent any weather packets the latest 10 day(s).

<< 11 12 13 14 15 16 17 >>
Time Temp. Humidity Pressure Rain* Wind** Luminosity Snow
1788532234 25° C 68% 1011.4 hPa 0 mm - 30 W/m² -
1788531931 25° C 70% 1011.5 hPa 0 mm - 29 W/m² -
1788531626 25° C 69% 1011.4 hPa 0 mm - 37 W/m² -
1788531321 25° C 71% 1011.4 hPa 0 mm - 36 W/m² -
1788531016 25° C 69% 1011.3 hPa 0 mm - 52 W/m² -
1788530716 24.44° C 71% 1011.5 hPa 0 mm - 29 W/m² -
1788530416 24.44° C 74% 1011.6 hPa 0 mm - 29 W/m² -
1788530115 24.44° C 76% 1011.4 hPa 0 mm - 28 W/m² -
1788529812 24.44° C 73% 1011.6 hPa 0 mm - 28 W/m² -
1788529507 24.44° C 74% 1011.9 hPa 0 mm - 27 W/m² -
1788529202 23.89° C 77% 1011.8 hPa 0 mm - 27 W/m² -
1788528901 23.89° C 74% 1011.7 hPa 0 mm - 27 W/m² -
1788524050 19.44° C 98% 1011.6 hPa 0 mm - 19 W/m² -
1788523747 19.44° C 98% 1011.6 hPa 0 mm - 19 W/m² -
1788523442 19.44° C 98% 1011.7 hPa 0 mm - 19 W/m² -
1788523137 19.44° C 98% 1011.8 hPa 0 mm - 19 W/m² -
1788522833 19.44° C 98% 1011.7 hPa 0 mm - 19 W/m² -
1788522533 19.44° C 98% 1011.5 hPa 0 mm - 19 W/m² -
1788522227 19.44° C 98% 1011.6 hPa 0 mm - 19 W/m² -
1788521923 19.44° C 98% 1011.4 hPa 0 mm - 19 W/m² -
1788521622 19.44° C 98% 1011.4 hPa 0 mm - 19 W/m² -
1788521317 19.44° C 98% 1011.2 hPa 0 mm - 19 W/m² -
1788521013 19.44° C 98% 1011.2 hPa 0 mm - 19 W/m² -
1788520708 19.44° C 98% 1011.3 hPa 0 mm - 18 W/m² -
1788520404 19.44° C 98% 1011.2 hPa 0 mm - 5 W/m² -

* Rain latest hour (hover to see other rain measurements)
** Current wind speed in m/s (hover to see current wind gust speed)